N5FTL Weather Reports


time (UTC)temp
C
wind
direction
speed
KPH
gust
KPH
rain 1hr
cm
rain 24hr
cm
rain mn
cm
humidity
%
barometer
mb
20260906221005 40 109 0.0 1.6 0.00 0.00 0.00 30 1003.9
20260906220505 40 109 0.0 3.2 0.00 0.00 0.00 30 1004.0
20260906220011 40 59 0.0 4.8 0.00 0.00 0.00 30 1004.0
20260906215510 40 96 0.0 4.8 0.00 0.00 0.00 30 1003.9
20260906215005 40 99 1.6 8.0 0.00 0.00 0.00 32 1004.0
20260906214505 40 105 0.0 8.0 0.00 0.00 0.00 31 1004.1
20260906214006 41 124 0.0 9.7 0.00 0.00 0.00 30 1004.2
20260906213006 41 136 3.2 9.7 0.00 0.00 0.00 30 1004.3
20260906212506 41 88 0.0 4.8 0.00 0.00 0.00 31 1004.4
20260906212005 40 146 0.0 4.8 0.00 0.00 0.00 33 1004.6
20260906211505 40 108 0.0 4.8 0.00 0.00 0.00 34 1004.7
20260906211007 39 115 1.6 3.2 0.00 0.00 0.00 33 1004.7
20260906210506 39 90 0.0 3.2 0.00 0.00 0.00 33 1004.9
20260906210006 38 95 0.0 0.0 0.00 0.00 0.00 35 1005.0
20260906205505 37 99 0.0 4.8 0.00 0.00 0.00 36 1005.1
20260906205006 37 104 0.0 4.8 0.00 0.00 0.00 35 1005.2
20260906204505 37 99 0.0 3.2 0.00 0.00 0.00 34 1005.2
20260906204006 38 139 0.0 3.2 0.00 0.00 0.00 34 1005.3
20260906203506 39 118 0.0 11.3 0.00 0.00 0.00 32 1005.3
20260906203006 39 108 0.0 11.3 0.00 0.00 0.00 32 1005.3
20260906202505 38 91 0.0 8.0 0.00 0.00 0.00 33 1005.3
20260906202006 38 107 0.0 8.0 0.00 0.00 0.00 34 1005.5
20260906201505 38 110 1.6 4.8 0.00 0.00 0.00 34 1005.5
20260906201006 39 105 0.0 4.8 0.00 0.00 0.00 33 1005.5
20260906200005 40 102 0.0 0.0 0.00 0.00 0.00 32 1005.5
20260906195505 40 99 0.0 0.0 0.00 0.00 0.00 33 1005.5
20260906195005 40 97 0.0 0.0 0.00 0.00 0.00 33 1005.6
20260906194506 40 100 0.0 3.2 0.00 0.00 0.00 33 1005.7
20260906194007 39 86 0.0 3.2 0.00 0.00 0.00 33 1005.7
20260906193507 39 130 0.0 16.1 0.00 0.00 0.00 34 1005.9
20260906193006 38 99 6.4 16.1 0.00 0.00 0.00 34 1006.0
20260906191505 38 104 1.6 9.7 0.00 0.00 0.00 34 1006.3
20260906191006 38 124 0.0 9.7 0.00 0.00 0.00 36 1006.4
20260906190505 37 126 0.0 8.0 0.00 0.00 0.00 37 1006.4
20260906185505 37 121 0.0 4.8 0.00 0.00 0.00 34 1006.3
20260906185006 38 115 0.0 8.0 0.00 0.00 0.00 35 1006.4
20260906184505 38 101 1.6 8.0 0.00 0.00 0.00 35 1006.5
20260906184005 38 105 0.0 9.7 0.00 0.00 0.00 36 1006.6
20260906182505 37 129 1.6 8.0 0.00 0.00 0.00 38 1006.9
20260906181505 36 171 0.0 12.9 0.00 0.00 0.00 39 1007.1
20260906181005 36 100 4.8 12.9 0.00 0.00 0.00 38 1007.1
20260906180505 36 219 0.0 9.7 0.00 0.00 0.00 37 1007.1
20260906180005 36 115 3.2 9.7 0.00 0.00 0.00 39 1007.5
20260906175505 36 108 0.0 4.8 0.00 0.00 0.00 38 1007.5
20260906175006 36 110 0.0 3.2 0.00 0.00 0.00 38 1007.4
20260906174505 36 111 0.0 9.7 0.00 0.00 0.00 40 1007.5
20260906174005 36 102 1.6 9.7 0.00 0.00 0.00 39 1007.4
20260906173505 36 106 0.0 9.7 0.00 0.00 0.00 39 1007.6
20260906173005 35 109 1.6 14.5 0.00 0.00 0.00 41 1007.5
20260906172505 35 134 1.6 14.5 0.00 0.00 0.00 41 1007.6
20260906172005 35 164 3.2 9.7 0.00 0.00 0.00 39 1007.6
20260906171506 35 100 1.6 11.3 0.00 0.00 0.00 41 1007.5
20260906171005 35 128 1.6 11.3 0.00 0.00 0.00 42 1007.7
20260906170507 35 122 4.8 11.3 0.00 0.00 0.00 42 1007.9
20260906170005 35 168 3.2 9.7 0.00 0.00 0.00 42 1008.0
20260906165505 35 99 0.0 11.3 0.00 0.00 0.00 45 1007.8
20260906165005 34 111 3.2 11.3 0.00 0.00 0.00 45 1007.8
20260906164504 34 108 3.2 8.0 0.00 0.00 0.00 45 1007.9
20260906164005 33 103 0.0 4.8 0.00 0.00 0.00 46 1007.9
20260906163505 33 100 1.6 4.8 0.00 0.00 0.00 47 1007.9
20260906163005 33 128 0.0 4.8 0.00 0.00 0.00 48 1007.9
20260906162504 33 114 0.0 8.0 0.00 0.00 0.00 47 1008.0
20260906162004 33 98 1.6 8.0 0.00 0.00 0.00 48 1008.0
20260906160505 32 122 0.0 4.8 0.00 0.00 0.00 50 1008.0
20260906160005 32 129 1.6 4.8 0.00 0.00 0.00 51 1008.0
20260906155505 31 126 0.0 4.8 0.00 0.00 0.00 52 1008.0
20260906155005 31 126 1.6 4.8 0.00 0.00 0.00 53 1007.9
20260906154505 31 121 0.0 3.2 0.00 0.00 0.00 56 1008.0
20260906154004 30 121 0.0 3.2 0.00 0.00 0.00 56 1008.0
20260906153505 30 121 0.0 4.8 0.00 0.00 0.00 57 1007.9
20260906153004 30 122 0.0 4.8 0.00 0.00 0.00 59 1007.8
20260906152505 29 133 0.0 3.2 0.00 0.00 0.00 60 1007.8
20260906152005 29 135 1.6 3.2 0.00 0.00 0.00 61 1007.7
20260906151504 29 135 0.0 0.0 0.00 0.00 0.00 61 1007.7
20260906151005 28 135 0.0 0.0 0.00 0.00 0.00 61 1007.7
20260906150505 28 135 0.0 0.0 0.00 0.00 0.00 62 1007.7
20260906150005 28 135 0.0 0.0 0.00 0.00 0.00 64 1007.8
20260906145504 28 135 0.0 0.0 0.00 0.00 0.00 65 1007.7
20260906145005 27 135 0.0 0.0 0.00 0.00 0.00 66 1007.7
20260906144505 27 135 0.0 0.0 0.00 0.00 0.00 66 1007.7
20260906144005 27 135 0.0 0.0 0.00 0.00 0.00 67 1007.8
20260906143504 27 135 0.0 0.0 0.00 0.00 0.00 68 1007.8
20260906143005 26 135 0.0 0.0 0.00 0.00 0.00 68 1007.8
20260906142505 26 135 0.0 0.0 0.00 0.00 0.00 69 1007.8
20260906142004 26 135 0.0 0.0 0.00 0.00 0.00 70 1007.8
20260906141505 26 135 0.0 0.0 0.00 0.00 0.00 71 1007.7
20260906141005 25 135 0.0 0.0 0.00 0.00 0.00 72 1007.7
20260906140504 25 135 0.0 0.0 0.00 0.00 0.00 73 1007.7
20260906140004 25 135 0.0 0.0 0.00 0.00 0.00 74 1007.7
20260906135504 24 135 0.0 0.0 0.00 0.00 0.00 75 1007.8
20260906135005 24 135 0.0 0.0 0.00 0.00 0.00 75 1007.8
20260906134004 23 135 0.0 0.0 0.00 0.00 0.00 76 1007.7
20260906133505 23 135 0.0 0.0 0.00 0.00 0.00 76 1007.8
20260906133005 23 135 0.0 0.0 0.00 0.00 0.00 76 1007.7
20260906132504 23 135 0.0 0.0 0.00 0.00 0.00 77 1007.8
20260906132005 22 135 0.0 0.0 0.00 0.00 0.00 77 1007.7
20260906131504 22 135 0.0 0.0 0.00 0.00 0.00 77 1007.7
20260906130505 22 135 0.0 0.0 0.00 0.00 0.00 78 1007.6
20260906130004 22 135 0.0 0.0 0.00 0.00 0.00 78 1007.7
20260906125511 22 135 0.0 0.0 0.00 0.00 0.00 77 1007.5
20260906125004 22 135 0.0 0.0 0.00 0.00 0.00 77 1007.3
20260906124504 22 135 0.0 0.0 0.00 0.00 0.00 77 1007.3
20260906124005 22 135 0.0 0.0 0.00 0.00 0.00 77 1007.2
20260906123504 22 135 0.0 0.0 0.00 0.00 0.00 76 1007.1
20260906123004 22 135 0.0 0.0 0.00 0.00 0.00 76 1007.1
20260906122504 22 135 0.0 0.0 0.00 0.00 0.00 76 1007.1
20260906121505 22 135 0.0 0.0 0.00 0.00 0.00 76 1006.8
20260906121008 22 135 0.0 0.0 0.00 0.00 0.00 75 1006.9
20260906120507 22 135 0.0 0.0 0.00 0.00 0.00 75 1006.9
20260906120007 22 135 0.0 0.0 0.00 0.00 0.00 75 1006.9
20260906115507 22 135 0.0 0.0 0.00 0.00 0.00 75 1006.8
20260906115008 22 135 0.0 0.0 0.00 0.00 0.00 74 1006.6
20260906114507 22 135 0.0 0.0 0.00 0.00 0.00 74 1006.6
20260906114007 22 135 0.0 0.0 0.00 0.00 0.00 75 1006.6
20260906113507 22 135 0.0 0.0 0.00 0.00 0.00 74 1006.7
20260906113007 22 135 0.0 0.0 0.00 0.00 0.00 74 1006.7
20260906112507 22 135 0.0 0.0 0.00 0.00 0.00 75 1006.7
20260906112007 22 135 0.0 0.0 0.00 0.00 0.00 74 1006.7
20260906111007 23 135 0.0 0.0 0.00 0.00 0.00 74 1006.6
20260906110507 23 135 0.0 0.0 0.00 0.00 0.00 74 1006.5
20260906110007 23 135 0.0 0.0 0.00 0.00 0.00 74 1006.5
20260906105507 23 135 0.0 0.0 0.00 0.00 0.00 73 1006.5
20260906104507 23 135 0.0 0.0 0.00 0.00 0.00 74 1006.5
20260906104008 23 135 0.0 0.0 0.00 0.00 0.00 74 1006.4
20260906103507 23 135 0.0 0.0 0.00 0.00 0.00 73 1006.4
20260906103007 23 135 0.0 0.0 0.00 0.00 0.00 73 1006.2
20260906102508 23 135 0.0 0.0 0.00 0.00 0.00 72 1006.2
20260906102007 23 135 0.0 0.0 0.00 0.00 0.00 72 1006.0
20260906101507 23 135 0.0 0.0 0.00 0.00 0.00 72 1006.0
20260906101007 23 135 0.0 0.0 0.00 0.00 0.00 72 1006.1
20260906100507 23 135 0.0 0.0 0.00 0.00 0.00 72 1006.1
20260906100007 23 135 0.0 0.0 0.00 0.00 0.00 72 1006.2
20260906095507 23 135 0.0 0.0 0.00 0.00 0.00 72 1006.1
20260906095007 23 135 0.0 0.0 0.00 0.00 0.00 72 1006.2
20260906094507 23 135 0.0 0.0 0.00 0.00 0.00 72 1006.1
20260906094008 23 135 0.0 0.0 0.00 0.00 0.00 72 1006.0
20260906093508 23 135 0.0 0.0 0.00 0.00 0.00 72 1005.7
20260906093010 23 135 0.0 0.0 0.00 0.00 0.00 71 1005.8
20260906092507 23 135 0.0 0.0 0.00 0.00 0.00 71 1005.8
20260906092008 23 135 0.0 0.0 0.00 0.00 0.00 70 1005.8
20260906091507 24 135 0.0 0.0 0.00 0.00 0.00 70 1005.7
20260906090507 24 135 0.0 0.0 0.00 0.00 0.00 69 1005.7
20260906085507 24 135 0.0 0.0 0.00 0.00 0.00 69 1005.6
20260906085007 24 135 0.0 0.0 0.00 0.00 0.00 68 1005.6
20260906084507 24 135 0.0 0.0 0.00 0.00 0.00 68 1005.8
20260906084007 24 135 0.0 0.0 0.00 0.00 0.00 67 1005.8
20260906083007 25 135 0.0 0.0 0.00 0.00 0.00 67 1005.9
20260906082507 25 135 0.0 0.0 0.00 0.00 0.00 66 1005.8
20260906082007 25 135 0.0 0.0 0.00 0.00 0.00 66 1005.8
20260906081506 25 135 0.0 0.0 0.00 0.00 0.00 66 1005.8
20260906081007 25 135 0.0 0.0 0.00 0.00 0.00 66 1005.9
20260906080507 25 135 0.0 0.0 0.00 0.00 0.00 66 1006.0
20260906080007 25 135 0.0 0.0 0.00 0.00 0.00 65 1006.1
20260906075507 25 135 0.0 0.0 0.00 0.00 0.00 65 1006.1
20260906075007 25 135 0.0 0.0 0.00 0.00 0.00 65 1006.0
20260906074507 25 135 0.0 0.0 0.00 0.00 0.00 65 1006.1
20260906074007 25 135 0.0 0.0 0.00 0.00 0.00 66 1006.1
20260906073507 26 135 0.0 0.0 0.00 0.00 0.00 66 1006.1
20260906072507 26 135 0.0 0.0 0.00 0.00 0.00 65 1006.1
20260906071507 26 135 0.0 0.0 0.00 0.00 0.00 64 1006.1
20260906071007 26 135 0.0 0.0 0.00 0.00 0.00 64 1006.1
20260906070006 26 135 0.0 0.0 0.00 0.00 0.00 63 1006.2
20260906065506 26 135 0.0 0.0 0.00 0.00 0.00 63 1006.3
20260906065007 26 135 0.0 0.0 0.00 0.00 0.00 63 1006.3
20260906064506 26 135 0.0 0.0 0.00 0.00 0.00 63 1006.4
20260906063507 26 135 0.0 0.0 0.00 0.00 0.00 62 1006.6
20260906063006 26 135 0.0 0.0 0.00 0.00 0.00 62 1006.8
20260906062507 27 135 0.0 0.0 0.00 0.00 0.00 61 1006.9
20260906062007 27 135 0.0 0.0 0.00 0.00 0.00 61 1006.9
20260906061507 27 135 0.0 0.0 0.00 0.00 0.00 61 1006.8
20260906060507 27 135 0.0 0.0 0.00 0.00 0.00 61 1006.6
20260906060007 27 135 0.0 0.0 0.00 0.00 0.00 61 1006.8
20260906055007 27 135 0.0 0.0 0.00 0.00 0.00 60 1006.8
20260906054506 27 135 0.0 0.0 0.00 0.00 0.00 59 1007.0
20260906054007 27 135 0.0 0.0 0.00 0.00 0.00 60 1006.9
20260906053506 28 135 0.0 0.0 0.00 0.00 0.00 59 1006.8
20260906053007 28 135 0.0 0.0 0.00 0.00 0.00 59 1006.8
20260906052506 28 135 0.0 0.0 0.00 0.00 0.00 58 1006.8
20260906052007 28 135 0.0 0.0 0.00 0.00 0.00 58 1006.8
20260906051507 28 135 0.0 0.0 0.00 0.00 0.00 58 1006.8
20260906051007 28 135 0.0 0.0 0.00 0.00 0.00 58 1006.9
20260906050508 28 135 0.0 4.8 0.00 0.00 0.00 58 1006.9
20260906050007 28 135 0.0 4.8 0.00 0.00 0.00 57 1006.9
20260906045006 28 136 0.0 0.0 0.00 0.00 0.00 57 1006.9
20260906044507 28 136 0.0 3.2 0.00 0.00 0.00 57 1006.8
20260906044007 28 136 0.0 3.2 0.00 0.00 0.00 57 1006.8
20260906043507 28 136 0.0 0.0 0.00 0.00 0.00 57 1006.8
20260906043007 28 136 0.0 3.2 0.00 0.00 0.00 57 1006.8
20260906042526 28 128 0.0 3.2 0.00 0.00 0.00 57 1006.8
20260906041512 28 118 0.0 0.0 0.00 0.00 0.00 56 1006.8
20260906041007 28 118 0.0 0.0 0.00 0.00 0.00 55 1006.8
20260906040506 28 119 0.0 0.0 0.00 0.00 0.00 55 1006.6
20260906040006 28 119 0.0 0.0 0.00 0.00 0.00 54 1006.6
20260906035507 29 119 0.0 0.0 0.00 0.00 0.00 55 1006.5
20260906035006 29 119 0.0 0.0 0.00 0.00 0.00 54 1006.4
20260906034507 29 119 0.0 0.0 0.00 0.00 0.00 54 1006.3
20260906033506 30 119 0.0 0.0 0.00 0.00 0.00 54 1006.2
20260906033007 30 119 0.0 3.2 0.00 0.00 0.00 53 1006.1
20260906032506 30 119 0.0 3.2 0.00 0.00 0.00 52 1006.0
20260906031506 30 119 0.0 0.0 0.00 0.00 0.00 51 1005.7
20260906030506 30 119 0.0 0.0 0.00 0.00 0.00 50 1005.5
20260906030006 31 119 0.0 0.0 0.00 0.00 0.00 49 1005.6
20260906025506 31 119 0.0 0.0 0.00 0.00 0.00 49 1005.4
20260906025006 31 119 0.0 0.0 0.00 0.00 0.00 49 1005.2
20260906024506 31 119 0.0 0.0 0.00 0.00 0.00 48 1005.2
20260906023506 31 119 0.0 1.6 0.00 0.00 0.00 48 1005.1
20260906023006 31 119 0.0 4.8 0.00 0.00 0.00 48 1005.0
20260906022506 32 119 0.0 4.8 0.00 0.00 0.00 47 1005.0
20260906022006 32 120 0.0 4.8 0.00 0.00 0.00 47 1004.9
20260906021506 32 118 1.6 3.2 0.00 0.00 0.00 47 1004.9
20260906021006 32 117 0.0 4.8 0.00 0.00 0.00 46 1004.7
20260906020506 32 117 0.0 8.0 0.00 0.00 0.00 46 1004.6
20260906020006 32 111 3.2 8.0 0.00 0.00 0.00 45 1004.5
20260906015506 32 113 3.2 8.0 0.00 0.00 0.00 45 1004.3
20260906015006 32 118 3.2 4.8 0.00 0.00 0.00 45 1004.3
20260906014006 33 134 1.6 4.8 0.00 0.00 0.00 44 1004.2
20260906013006 33 125 3.2 4.8 0.00 0.00 0.00 43 1004.1
20260906012506 33 131 3.2 4.8 0.00 0.00 0.00 43 1003.9
20260906012006 33 115 1.6 8.0 0.00 0.00 0.00 43 1003.9
20260906011506 34 98 1.6 8.0 0.00 0.00 0.00 42 1003.9
20260906010506 35 125 1.6 9.7 0.00 0.00 0.00 41 1003.8
20260906005506 35 101 3.2 14.5 0.00 0.00 0.00 39 1003.7
20260906005006 36 126 1.6 14.5 0.00 0.00 0.00 38 1003.8
20260906004006 37 122 3.2 9.7 0.00 0.00 0.00 36 1003.6
20260906003506 37 114 0.0 4.8 0.00 0.00 0.00 35 1003.6
20260906003006 38 120 3.2 4.8 0.00 0.00 0.00 34 1003.6
20260906002006 40 110 1.6 9.7 0.00 0.00 0.00 32 1003.6
20260906001506 40 136 1.6 11.3 0.00 0.00 0.00 32 1003.5
20260906000506 41 111 1.6 4.8 0.00 0.00 0.00 31 1003.4
20260906000005 41 110 0.0 4.8 0.00 0.00 0.00 31 1003.4
20260905235006 41 103 1.6 9.7 0.00 0.00 0.00 31 1003.3
20260905234506 41 108 4.8 9.7 0.00 0.00 0.00 30 1003.3
20260905233506 42 77 0.0 3.2 0.00 0.00 0.00 31 1003.2
20260905233008 41 98 0.0 4.8 0.00 0.00 0.00 31 1003.2
20260905232506 41 98 1.6 4.8 0.00 0.00 0.00 32 1003.2
20260905232005 40 109 0.0 4.8 0.00 0.00 0.00 32 1003.2
20260905231506 41 110 0.0 4.8 0.00 0.00 0.00 31 1003.3
20260905231005 41 101 0.0 3.2 0.00 0.00 0.00 30 1003.3
20260905230506 42 105 0.0 4.8 0.00 0.00 0.00 31 1003.3
20260905225505 42 100 1.6 4.8 0.00 0.00 0.00 31 1003.3
20260905225006 42 70 0.0 3.2 0.00 0.00 0.00 30 1003.2
20260905224006 41 103 0.0 4.8 0.00 0.00 0.00 32 1003.3
20260905223505 41 106 1.6 3.2 0.00 0.00 0.00 33 1003.4
20260905222506 40 104 1.6 4.8 0.00 0.00 0.00 34 1003.5
20260905222006 40 81 0.0 3.2 0.00 0.00 0.00 32 1003.6